Dyess AFB, TX

1:26 PM CST on February 25, 2017 (GMT -0600)
Dyess Air Force Base

Weather History for KDYS - June, 2013

Change the Weather History Date:

Thursday, June 13, 2013

  Actual Average Record
Temperature  
Mean Temperature 84 °F -  
Max Temperature 97 °F 89 °F 104 °F (2011)
Min Temperature 72 °F 67 °F 64 °F (2004)
Cooling Degree Days 20    
Growing Degree Days 34 (Base 50)    
Moisture  
Dew Point 64 °F    
Average Humidity 52    
Maximum Humidity 81    
Minimum Humidity 27    
Precipitation  
Precipitation 0.00 in - - ()
Sea Level Pressure  
Sea Level Pressure 29.88 in    
Wind  
Wind Speed 11 mph (SSE)    
Max Wind Speed 24 mph    
Max Gust Speed 33 mph    
Visibility 10 miles    
Events      
Averages and records for this station are not official NWS values.
T = Trace of Precipitation, MM = Missing Value Source: NWS Daily Summary

Daily Weather History Graph

Daily Weather History Graph

Search for Another Location

Airport or City:

Trip Planner

Search our weather history database for the weather conditions in past years. The results will help you decide how hot, cold, wet, or windy it might be!

Date:

Astronomy

Jun. 13, 2013 Rise Set
Actual Time 6:31 AM CDT 8:47 PM CDT
Civil Twilight 6:03 AM CDT 9:15 PM CDT
Nautical Twilight 5:28 AM CDT 9:50 PM CDT
Astronomical Twilight 4:50 AM CDT 10:28 PM CDT
Moon 10:57 AM CDT (6/13) No Moon Set
Length of Visible Light 15h 12m
Length of Day
14h 15m
Waxing Crescent, 22% of the Moon is Illuminated
Jun 13
Waxing Crescent
Jun 16
First Quarter
Jun 23
Full
Jun 29
Last Quarter
Jul 8
New

Hourly Weather History & Observations

Time (CDT) Temp. Heat Index Dew Point Humidity Pressure Visibility Wind Dir Wind Speed Gust Speed Precip Events Conditions
12:58 AM 75.9 °F - 64.2 °F 67% 29.88 in 10.0 mi South 5.8 mph - N/A   Clear
1:58 AM 78.4 °F - 63.3 °F 60% 29.87 in 10.0 mi South 12.7 mph - N/A   Clear
2:58 AM 77.5 °F - 65.7 °F 67% 29.87 in 10.0 mi South 10.4 mph - N/A   Clear
3:58 AM 75.9 °F - 66.0 °F 71% 29.87 in 10.0 mi South 12.7 mph - N/A   Clear
4:58 AM 74.1 °F - 66.0 °F 76% 29.88 in 10.0 mi South 8.1 mph - N/A   Clear
5:58 AM 72.5 °F - 65.7 °F 79% 29.90 in 10.0 mi South 8.1 mph - N/A   Clear
6:58 AM 72.1 °F - 66.0 °F 81% 29.93 in 10.0 mi South 4.6 mph - N/A   Clear
7:58 AM 76.3 °F - 68.4 °F 76% 29.94 in 10.0 mi South 12.7 mph - N/A   Clear
8:58 AM 79.5 °F - 69.1 °F 70% 29.94 in 10.0 mi SSW 16.1 mph - N/A   Clear
9:58 AM 81.7 °F 84.9 °F 69.1 °F 65% 29.94 in 10.0 mi South 10.4 mph - N/A   Clear
10:58 AM 85.3 °F 88.8 °F 68.7 °F 57% 29.94 in 10.0 mi South 11.5 mph - N/A   Clear
11:58 AM 88.5 °F 91.9 °F 67.5 °F 50% 29.94 in 10.0 mi SSW 6.9 mph - N/A   Partly Cloudy
12:58 PM 90.9 °F 92.3 °F 64.2 °F 41% 29.91 in 10.0 mi SSE 8.1 mph 17.3 mph N/A   Scattered Clouds
1:58 PM 93.2 °F 93.7 °F 62.1 °F 35% 29.89 in 10.0 mi SE 11.5 mph 24.2 mph N/A   Mostly Cloudy
2:58 PM 93.4 °F 93.5 °F 60.8 °F 34% 29.86 in 10.0 mi SE 12.7 mph - N/A   Mostly Cloudy
3:58 PM 95.9 °F 95.7 °F 60.3 °F 30% 29.82 in 10.0 mi SE 12.7 mph 18.4 mph N/A   Scattered Clouds
4:31 PM 96.8 °F 95.8 °F 57.2 °F 27% 29.96 in 10.0 mi South 13.8 mph 17.3 mph N/A   Scattered Clouds
4:58 PM 97.2 °F 96.8 °F 58.6 °F 28% 29.80 in 10.0 mi SSE 12.7 mph - N/A   Partly Cloudy
5:55 PM 96.8 °F 97.1 °F 60.8 °F 30% 29.94 in 10.0 mi SE 13.8 mph - N/A   Mostly Cloudy
5:58 PM 96.4 °F 96.5 °F 60.4 °F 30% 29.79 in 10.0 mi ESE 11.5 mph - N/A   Mostly Cloudy
6:58 PM 95.2 °F 95.5 °F 60.6 °F 32% 29.85 in 10.0 mi ESE 13.8 mph - N/A   Mostly Cloudy
7:51 PM 91.4 °F 91.4 °F 60.8 °F 36% 29.93 in 10.0 mi South 24.2 mph 33.4 mph N/A   Scattered Clouds
7:58 PM 90.5 °F 91.1 °F 62.6 °F 39% 29.79 in 10.0 mi South 20.7 mph 33.4 mph N/A   Scattered Clouds
8:58 PM 85.5 °F 86.1 °F 62.6 °F 46% 29.81 in 10.0 mi South 17.3 mph - N/A   Clear
9:58 PM 82.8 °F 83.8 °F 62.8 °F 51% 29.84 in 10.0 mi South 17.3 mph - N/A   Clear
10:58 PM 80.8 °F 82.0 °F 62.6 °F 54% 29.84 in 10.0 mi South 13.8 mph - N/A   Clear
11:58 PM 79.2 °F - 64.0 °F 60% 29.84 in 10.0 mi South 12.7 mph - N/A   Clear